Luverne, MN

6:18 PM CDT on April 28, 2017 (GMT -0500)
Luverne

Weather History for KLYV - August, 2014

Change the Weather History Date:

Friday, August 15, 2014

  Actual Average (KPQN) Record (KPQN)
Temperature  
Mean Temperature 71 °F -  
Max Temperature 78 °F 76 °F 89 °F (2003)
Min Temperature 64 °F 56 °F 48 °F (1996)
Cooling Degree Days 6    
Growing Degree Days 21 (Base 50)    
Moisture  
Dew Point 65 °F    
Average Humidity 82    
Maximum Humidity 94    
Minimum Humidity 69    
Precipitation  
Precipitation 0.47 in - - ()
Sea Level Pressure  
Sea Level Pressure 29.92 in    
Wind  
Wind Speed 5 mph (SSE)    
Max Wind Speed 20 mph    
Max Gust Speed 26 mph    
Visibility 9 miles    
Events Rain , Thunderstorm    
Averages and records for this station are not official NWS values.
T = Trace of Precipitation, MM = Missing Value Source: NWS Daily Summary

Daily Weather History Graph

Daily Weather History Graph

Search for Another Location

Airport or City:

Trip Planner

Search our weather history database for the weather conditions in past years. The results will help you decide how hot, cold, wet, or windy it might be!

Date:

Astronomy

Aug. 15, 2014 Rise Set
Actual Time 6:29 AM CDT 8:28 PM CDT
Civil Twilight 5:58 AM CDT 8:59 PM CDT
Nautical Twilight 5:20 AM CDT 9:37 PM CDT
Astronomical Twilight 4:38 AM CDT 10:18 PM CDT
Moon 11:18 PM CDT (8/15) 12:25 PM CDT (8/15)
Length of Visible Light 15h 00m
Length of Day
13h 58m
Waning Gibbous, 69% of the Moon is Illuminated
Aug 15
Waning Gibbous
Aug 17
Last Quarter
Aug 25
New
Sep 2
First Quarter
Sep 8
Full

Hourly Weather History & Observations

Time (CDT) Temp. Dew Point Humidity Pressure Visibility Wind Dir Wind Speed Gust Speed Precip Events Conditions
12:14 AM 66.2 °F 62.6 °F 88% 29.98 in 10.0 mi Calm Calm - N/A   Clear
12:34 AM 66.2 °F 62.6 °F 88% 29.97 in 10.0 mi Calm Calm - N/A Thunderstorm Thunderstorm
12:55 AM 66.2 °F 62.6 °F 88% 29.97 in 10.0 mi SE 3.5 mph - N/A Thunderstorm Mostly Cloudy
1:14 AM 64.4 °F 62.6 °F 94% 29.96 in 10.0 mi Calm Calm - N/A   Scattered Clouds
1:35 AM 66.2 °F 62.6 °F 88% 29.96 in 10.0 mi Calm Calm - N/A   Clear
1:54 AM 66.2 °F 62.6 °F 88% 29.96 in 10.0 mi Calm Calm - N/A Thunderstorm Clear
2:14 AM 68.0 °F 62.6 °F 83% 29.96 in 10.0 mi ESE 3.5 mph - N/A   Clear
2:34 AM 68.0 °F 62.6 °F 83% 29.97 in 10.0 mi Calm Calm - N/A   Clear
2:54 AM 68.0 °F 62.6 °F 83% 29.97 in 10.0 mi East 3.5 mph - N/A   Clear
3:14 AM 68.0 °F 62.6 °F 83% 29.97 in 10.0 mi Calm Calm - N/A   Scattered Clouds
3:34 AM 66.2 °F 62.6 °F 88% 29.96 in 10.0 mi Calm Calm - N/A   Scattered Clouds
3:55 AM 68.0 °F 62.6 °F 83% 29.96 in 10.0 mi Calm Calm - N/A   Scattered Clouds
4:14 AM 68.0 °F 62.6 °F 83% 29.96 in 10.0 mi ESE 3.5 mph - N/A   Mostly Cloudy
4:35 AM 68.0 °F 62.6 °F 83% 29.96 in 7.0 mi SE 8.1 mph - N/A Rain , Thunderstorm Light Thunderstorms and Rain
4:54 AM 68.0 °F 62.6 °F 83% 29.95 in 10.0 mi SE 11.5 mph 17.3 mph N/A Thunderstorm Thunderstorm
5:15 AM 68.0 °F 62.6 °F 83% 29.95 in 10.0 mi East 4.6 mph - N/A Thunderstorm Thunderstorm
5:34 AM 68.0 °F 62.6 °F 83% 29.95 in 10.0 mi ESE 8.1 mph - N/A   Overcast
5:55 AM 68.0 °F 62.6 °F 83% 29.96 in 10.0 mi South 6.9 mph - N/A   Overcast
6:14 AM 68.0 °F 62.6 °F 83% 29.95 in 10.0 mi SSE 5.8 mph - N/A Thunderstorm Thunderstorm
6:34 AM 68.0 °F 62.6 °F 83% 29.96 in 10.0 mi SSE 4.6 mph - N/A Thunderstorm Thunderstorm
6:54 AM 68.0 °F 62.6 °F 83% 29.96 in 7.0 mi ESE 5.8 mph - 0.03 in Rain , Thunderstorm Thunderstorms and Rain
7:15 AM 68.0 °F 62.6 °F 83% 29.98 in 7.0 mi East 5.8 mph - 0.03 in Rain , Thunderstorm Thunderstorms and Rain
7:34 AM 66.2 °F 62.6 °F 88% 29.97 in 5.0 mi ESE 5.8 mph - 0.09 in Rain , Thunderstorm Rain
7:55 AM 66.2 °F 62.6 °F 88% 29.99 in 5.0 mi ESE 4.6 mph - 0.17 in Rain , Thunderstorm Rain
8:14 AM 66.2 °F 62.6 °F 88% 30.00 in 4.0 mi South 4.6 mph - 0.06 in Rain , Thunderstorm Heavy Thunderstorms and Rain
8:35 AM 66.2 °F 62.6 °F 88% 29.99 in 7.0 mi SSE 4.6 mph - 0.12 in Rain , Thunderstorm Thunderstorms and Rain
9:15 AM 64.4 °F 62.6 °F 94% 29.99 in 5.0 mi South 8.1 mph - 0.04 in Rain Rain
9:34 AM 64.4 °F 62.6 °F 94% 29.97 in 4.0 mi South 13.8 mph - 0.10 in Rain Rain
9:55 AM 64.4 °F 62.6 °F 94% 29.92 in 5.0 mi South 16.1 mph 25.3 mph 0.15 in Rain Light Rain
10:14 AM 68.0 °F 64.4 °F 88% 29.91 in 10.0 mi South 15.0 mph 24.2 mph N/A Rain Light Rain
10:35 AM 68.0 °F 64.4 °F 88% 29.88 in 10.0 mi South 15.0 mph 24.2 mph N/A   Scattered Clouds
10:54 AM 68.0 °F 64.4 °F 88% 29.88 in 10.0 mi South 19.6 mph 25.3 mph N/A   Clear
11:14 AM 69.8 °F 64.4 °F 83% 29.88 in 10.0 mi South 18.4 mph 24.2 mph N/A   Clear
11:35 AM 69.8 °F 64.4 °F 83% 29.90 in 10.0 mi South 12.7 mph 23.0 mph N/A   Clear
11:54 AM 71.6 °F 64.4 °F 78% 29.89 in 10.0 mi South 11.5 mph 19.6 mph N/A   Clear
12:15 PM 73.4 °F 64.4 °F 73% 29.90 in 10.0 mi South 16.1 mph 20.7 mph N/A   Clear
12:34 PM 73.4 °F 64.4 °F 73% 29.90 in 10.0 mi South 12.7 mph 21.9 mph N/A   Clear
12:55 PM 73.4 °F 64.4 °F 73% 29.90 in 10.0 mi South 17.3 mph 26.5 mph N/A   Clear
1:14 PM 73.4 °F 64.4 °F 73% 29.90 in 10.0 mi South 13.8 mph 25.3 mph N/A   Clear
1:35 PM 73.4 °F 66.2 °F 78% 29.90 in 10.0 mi South 12.7 mph 24.2 mph N/A   Clear
1:54 PM 75.2 °F 68.0 °F 78% 29.90 in 10.0 mi SSE 9.2 mph - N/A   Scattered Clouds
2:15 PM 75.2 °F 68.0 °F 78% 29.91 in 10.0 mi South 9.2 mph 17.3 mph N/A   Mostly Cloudy
2:34 PM 77.0 °F 68.0 °F 74% 29.91 in 10.0 mi South 6.9 mph - N/A   Mostly Cloudy
2:55 PM 77.0 °F 68.0 °F 74% 29.90 in 10.0 mi South 8.1 mph - N/A   Overcast
3:14 PM 78.8 °F 68.0 °F 69% 29.90 in 10.0 mi South 12.7 mph - N/A   Mostly Cloudy
3:35 PM 78.8 °F 68.0 °F 69% 29.90 in 10.0 mi South 10.4 mph - N/A   Overcast
3:54 PM 77.0 °F 68.0 °F 74% 29.90 in 10.0 mi South 9.2 mph - N/A   Overcast
4:15 PM 77.0 °F 68.0 °F 74% 29.90 in 10.0 mi SSE 8.1 mph - N/A   Overcast
4:34 PM 77.0 °F 68.0 °F 74% 29.89 in 10.0 mi SSE 8.1 mph - N/A   Overcast
4:54 PM 77.0 °F 68.0 °F 74% 29.89 in 10.0 mi SSE 6.9 mph - N/A   Overcast
5:14 PM 77.0 °F 69.8 °F 78% 29.89 in 10.0 mi SSE 8.1 mph - N/A   Overcast
5:34 PM 77.0 °F 68.0 °F 74% 29.89 in 10.0 mi SSE 6.9 mph - N/A   Mostly Cloudy
5:55 PM 77.0 °F 69.8 °F 78% 29.89 in 10.0 mi SSE 8.1 mph - N/A   Scattered Clouds
6:14 PM 78.8 °F 69.8 °F 74% 29.89 in 10.0 mi South 6.9 mph - N/A   Mostly Cloudy
6:34 PM 77.0 °F 69.8 °F 78% 29.89 in 10.0 mi South 8.1 mph - N/A   Mostly Cloudy
6:55 PM 77.0 °F 68.0 °F 74% 29.89 in 10.0 mi South 9.2 mph - N/A   Scattered Clouds
7:14 PM 77.0 °F 68.0 °F 74% 29.88 in 10.0 mi South 6.9 mph - N/A   Clear
7:35 PM 77.0 °F 69.8 °F 78% 29.88 in 10.0 mi South 6.9 mph - N/A   Clear
7:54 PM 75.2 °F 68.0 °F 78% 29.88 in 10.0 mi South 6.9 mph - N/A   Scattered Clouds
8:15 PM 73.4 °F 68.0 °F 83% 29.88 in 10.0 mi South 8.1 mph - N/A   Clear
8:34 PM 71.6 °F 68.0 °F 88% 29.88 in 10.0 mi South 5.8 mph - N/A   Clear
8:54 PM 69.8 °F 66.2 °F 88% 29.88 in 10.0 mi South 4.6 mph - N/A   Clear
9:15 PM 69.8 °F 66.2 °F 88% 29.89 in 10.0 mi South 4.6 mph - N/A   Clear
9:34 PM 69.8 °F 66.2 °F 88% 29.90 in 10.0 mi SSW 6.9 mph - N/A   Clear
9:54 PM 69.8 °F 66.2 °F 88% 29.90 in 7.0 mi South 5.8 mph - N/A   Clear
10:15 PM 68.0 °F 64.4 °F 88% 29.90 in 7.0 mi South 4.6 mph - N/A   Clear
10:34 PM 68.0 °F 64.4 °F 88% 29.90 in 5.0 mi Calm Calm - N/A   Clear
10:55 PM 68.0 °F 64.4 °F 88% 29.90 in 5.0 mi Calm Calm - N/A   Clear
11:14 PM 68.0 °F 64.4 °F 88% 29.89 in 4.0 mi Calm Calm - N/A   Clear
11:34 PM 68.0 °F 64.4 °F 88% 29.88 in 3.0 mi South 3.5 mph - N/A   Clear